TimePDT,TemperatureF,Dew PointF,Humidity,Sea Level PressureIn,VisibilityMPH,Wind Direction,Wind SpeedMPH,Gust SpeedMPH,PrecipitationIn,Events,Conditions,WindDirDegrees,DateUTC
12:56 AM,57.0,24.1,28,30.06,10.0,West,9.2,-,N/A,,Clear,260,2013-03-12 07:56:00
1:56 AM,53.1,24.1,32,30.06,10.0,West,3.5,-,N/A,,Clear,260,2013-03-12 08:56:00
2:56 AM,51.1,23.0,33,30.04,10.0,West,4.6,-,N/A,,Clear,280,2013-03-12 09:56:00
3:56 AM,52.0,23.0,32,30.04,10.0,WNW,3.5,-,N/A,,Clear,290,2013-03-12 10:56:00
4:56 AM,52.0,25.0,35,30.04,10.0,WSW,5.8,-,N/A,,Clear,240,2013-03-12 11:56:00
5:56 AM,50.0,26.1,39,30.05,10.0,West,5.8,-,N/A,,Clear,260,2013-03-12 12:56:00
6:56 AM,48.9,26.1,41,30.06,10.0,West,5.8,-,N/A,,Clear,260,2013-03-12 13:56:00
7:56 AM,53.1,24.1,32,30.09,10.0,West,5.8,-,N/A,,Clear,260,2013-03-12 14:56:00
8:56 AM,62.1,27.0,26,30.12,10.0,West,4.6,-,N/A,,Clear,260,2013-03-12 15:56:00
9:56 AM,71.1,28.0,20,30.12,10.0,SW,4.6,-,N/A,,Clear,230,2013-03-12 16:56:00
10:56 AM,78.1,25.0,14,30.12,10.0,West,4.6,-,N/A,,Clear,270,2013-03-12 17:56:00
11:56 AM,82.9,24.1,12,30.11,10.0,North,4.6,-,N/A,,Clear,350,2013-03-12 18:56:00
12:56 PM,82.9,19.0,9,30.09,10.0,Calm,Calm,-,N/A,,Clear,0,2013-03-12 19:56:00
1:56 PM,86.0,23.0,10,30.06,10.0,Variable,6.9,-,N/A,,Clear,0,2013-03-12 20:56:00
2:56 PM,86.0,23.0,10,30.04,10.0,Calm,Calm,-,N/A,,Clear,0,2013-03-12 21:56:00
3:56 PM,88.0,25.0,10,30.02,10.0,NNE,9.2,-,N/A,,Clear,30,2013-03-12 22:56:00
4:56 PM,87.1,25.0,10,30.01,10.0,NNE,4.6,-,N/A,,Clear,20,2013-03-12 23:56:00
5:56 PM,84.9,26.1,12,30.01,10.0,Calm,Calm,-,N/A,,Clear,0,2013-03-13 00:56:00
6:56 PM,81.0,27.0,14,30.01,10.0,South,3.5,-,N/A,,Clear,190,2013-03-13 01:56:00
7:56 PM,75.0,28.9,18,30.03,10.0,SSW,3.5,-,N/A,,Clear,200,2013-03-13 02:56:00
8:56 PM,66.9,28.9,24,30.04,10.0,Calm,Calm,-,N/A,,Clear,0,2013-03-13 03:56:00
9:56 PM,64.0,34.0,33,30.07,10.0,WSW,4.6,-,N/A,,Clear,250,2013-03-13 04:56:00
10:56 PM,63.0,26.1,25,30.07,10.0,Calm,Calm,-,N/A,,Clear,0,2013-03-13 05:56:00
11:56 PM,64.0,24.1,22,30.07,10.0,WSW,9.2,-,N/A,,Clear,240,2013-03-13 06:56:00